OneWeb SL0156

operational
NORAD ID: 48052 Int'l Des: 2021-025 Owner: ONEWEBN Country: UK Constellation: oneweb
LEOCIRCULARPOLARONEWEB_TYPE

关于 OneWeb SL0156

正在加载描述...

实时位置

正在加载3D地球...

即将过境

高度历史

Altitude vs Time

uPlot chart will show altitude changes over time

两行轨道根数

1 48052U 21025L 25258.57411064 -.00000134 00000-0 -40289-3 0 9995
2 48052 87.9037 14.7613 0001904 102.4100 257.7242 13.13469951217527
Epoch: Sep 15, 2025 • Age: 16 hours

当前状态

高度 1228.1 km
速度 7.24 km/s
星下点 -44.52°S, 72.98°W
发射日期 Mar 25, 2021
运行时间 4.4 years
类型 internet

技术详情

分类 Payload
质量 148.00 kg
干质量 140.00 kg
总质量 148.00 kg
长度 1.30 m
直径 1.00 m
跨度 5.00 m
形状 Trapezoid+2 pan
制造商 ONEWUS
平台类型 ARROW
阶段状态 In Orbit
所有者/国家 ONEWEBN/UK

大型星座

Loading constellations...